Location: Ladirat
(44.8151°N, 1.9702°E)
Time: 15:09:24
(UTC+00:00)

Cosmos 2219 Rocket - Pass Details

Date: 15 May 2026
Orbit: 825 x 846 km, 71.0° (Epoch: 10 June)

Event Time Altitude Azimuth Distance (km) Brightness Sun altitude
Rises 21:58:27 0° 334° (NNW) 3,405 6.9 -21.4°
Reaches altitude 10° 22:00:53 10° 334° (NNW) 2,469 5.8 -21.6°
Maximum altitude 22:06:35 88° 245° (WSW) 851 2.1 -22.0°
Enters shadow 22:08:12 49° 159° (SSE) 1,080 2.3 -22.2°
